Wind_Speed
45 44 44 44 45 46 46 46 45 45 44 44 45 45 45 45 45 46 45 46 46 46 47 46 46 46 45 43 42 42 42 41 40 39 39 39 39 39
45 46 45 44 44 45 46 45 45 46 45 44 45 45 45 45 45 45 45 45 46 46 46 46 45 43 42 42 41 40 39 39 39 39 39 39 39 39
45 45 44 44 45 45 44 45 46 46 46 45 45 45 44 44 44 43 44 45 44 44 44 44 41 40 39 40 39 38 37 37 37 37 38 38 38 38
45 44 44 45 45 44 44 45 45 45 44 44 43 43 43 42 43 43 44 44 42 41 40 40 39 39 39 38 37 36 36 36 36 36 36 36 37 37
43 43 43 43 43 43 43 43 43 42 42 41 41 41 41 41 42 42 41 41 40 38 38 38 38 38 38 36 35 34 34 34 33 34 35 35 36 36
43 43 43 42 42 42 41 41 40 40 39 39 40 40 40 40 40 39 38 38 37 36 36 36 36 36 36 35 33 32 31 30 31 32 33 33 32 32
42 42 42 42 42 41 40 40 39 38 38 38 39 39 39 39 38 37 36 36 35 35 35 35 35 35 34 33 32 31 29 29 30 31 30 31 30 31
41 42 42 41 40 40 39 40 38 38 37 37 37 36 36 36 36 36 35 35 34 34 34 33 33 33 32 31 30 29 28 28 28 29 29 29 30 30
41 41 40 40 38 38 38 38 37 37 36 36 35 34 34 34 35 35 34 33 33 33 32 32 32 31 30 29 28 27 27 27 27 27 27 27 27 27
41 40 39 36 36 35 35 35 35 35 34 34 33 33 33 33 34 34 32 32 32 31 30 30 30 29 29 28 27 27 27 26 25 25 25 24 23 22
40 39 37 36 35 34 34 35 35 35 34 34 34 33 32 32 32 32 31 31 30 30 30 29 28 28 27 26 26 26 26 25 24 23 22 22 21 21
38 37 36 34 34 33 33 33 33 33 33 34 34 33 31 30 30 30 29 29 28 27 27 27 26 26 25 24 24 24 24 23 22 21 20 20 21 22
35 34 34 33 33 32 32 31 31 32 32 32 32 31 30 29 27 27 27 26 26 26 26 25 25 24 24 23 22 22 21 21 21 20 19 19 20 21
31 32 32 31 31 30 30 29 29 29 29 29 28 27 26 25 24 24 24 24 24 23 23 23 22 22 21 20 20 19 18 18 18 19 18 18 19 19
29 29 30 30 30 29 28 27 27 26 26 25 24 24 23 22 22 21 21 21 21 20 19 19 19 19 18 17 16 16 16 16 16 16 17 17 18 18
27 28 28 28 29 29 28 26 25 25 24 23 22 21 20 20 20 19 19 19 18 17 17 16 16 16 15 14 14 14 14 14 14 14 15 16 16 17
26 27 28 28 28 28 27 26 25 23 22 21 21 20 19 19 19 18 17 16 15 15 14 13 13 14 14 13 12 12 13 13 13 14 15 16 16 17
25 26 26 26 26 26 26 23 22 21 20 20 21 20 20 19 18 16 16 14 12 12 12 12 12 12 12 11 11 12 12 12 12 13 13 14 15 16
24 24 24 23 23 22 22 22 21 20 20 19 19 18 17 16 15 13 13 12 11 11 11 11 11 11 11 11 11 11 11 11 11 11 12 13 14 14
23 22 21 21 21 20 20 20 19 18 17 16 15 15 14 13 12 11 11 11 11 10 10 11 10 10 10 10 10 9 10 10 10 11 12 12 12 13
20 20 19 19 19 18 18 17 17 16 15 14 14 14 13 12 11 11 10 10 10 10 9 9 10 10 9 9 9 9 9 10 11 11 12 11 11 11
18 18 18 17 17 16 16 16 16 15 15 14 14 13 13 12 12 11 11 10 10 10 9 9 10 10 9 10 9 9 9 10 11 11 11 11 11 11
16 16 16 16 16 16 16 16 16 16 16 15 15 14 13 13 13 12 11 10 9 9 9 9 9 9 9 9 9 9 10 10 10 10 11 11 11 10
Wind_Direction
271 271 272 272 273 275 276 277 278 278 278 279 280 281 282 282 281 280 280 281 283 284 285 288 289 289 288 287 287 285 283 281 281 282 284 286 286 286
271 272 272 272 273 274 276 277 278 279 279 279 280 280 281 281 281 281 281 282 284 285 286 287 289 290 288 287 286 286 283 281 280 281 283 285 285 285
270 271 270 272 274 275 277 277 278 279 278 278 279 279 280 280 281 283 284 283 284 285 286 288 288 289 289 288 286 286 284 282 281 281 283 285 286 285
270 270 269 271 273 275 277 277 278 278 278 278 278 278 279 280 281 282 283 283 284 285 285 286 287 288 289 289 286 286 284 283 281 281 283 284 286 286
268 268 269 271 273 275 277 278 278 277 277 277 277 277 279 280 281 282 283 284 283 284 284 285 287 289 289 290 288 287 284 282 282 282 282 284 285 286
267 268 268 270 273 274 275 277 277 276 277 277 278 278 278 280 280 281 283 284 283 282 284 286 288 290 290 289 289 288 285 284 285 284 284 284 286 287
267 267 268 270 272 274 274 276 276 275 275 277 278 279 279 279 280 281 282 283 281 282 284 286 288 290 290 289 287 286 284 285 285 286 288 288 287 288
268 268 268 269 270 273 273 274 274 275 275 277 279 280 280 280 280 281 281 280 280 281 283 286 290 291 291 291 290 286 284 287 288 289 290 290 290 290
268 270 270 269 269 270 272 272 273 274 276 277 279 280 279 279 280 280 280 278 279 280 282 286 290 291 290 289 288 286 286 288 289 290 291 292 292 293
267 269 270 269 268 270 271 272 273 273 275 277 279 280 279 279 279 279 279 279 279 281 282 286 288 288 289 288 286 288 288 287 288 290 291 291 293 295
267 267 267 266 266 267 268 270 272 274 276 277 279 279 279 280 279 277 277 279 278 280 282 284 286 287 286 286 287 289 290 289 290 290 290 290 293 298
266 264 263 263 263 264 267 271 273 275 276 276 277 278 279 280 279 276 275 278 280 280 282 284 286 285 284 285 286 287 289 290 292 294 294 294 296 298
264 261 260 261 263 265 267 269 271 274 275 275 276 276 278 281 279 275 275 277 279 281 282 284 286 286 286 286 287 287 288 292 294 296 299 299 300 301
262 261 260 259 261 264 266 269 273 275 275 275 275 276 277 279 277 273 275 278 279 280 282 283 285 286 287 287 288 290 292 295 297 298 299 302 304 303
263 260 259 259 260 264 267 270 272 274 275 275 275 276 276 275 276 273 274 277 278 278 280 282 284 286 287 289 290 290 293 296 300 300 302 304 306 306
263 260 261 262 263 265 266 269 271 273 274 273 272 274 274 275 277 276 275 278 277 276 277 281 285 288 290 289 289 291 295 298 298 300 303 307 308 311
263 263 263 263 263 263 264 266 268 268 270 270 270 270 273 275 276 276 275 278 277 276 274 279 286 291 292 289 290 294 299 301 301 301 302 304 308 314
261 264 264 263 260 260 261 263 263 264 267 268 267 269 271 274 276 274 271 271 275 275 274 274 280 286 288 289 291 296 300 301 301 302 307 310 312 316
261 262 262 259 258 259 259 258 259 262 265 266 265 266 269 271 274 272 269 267 267 271 276 274 276 280 283 286 293 299 303 305 306 307 310 313 316 319
262 261 257 254 253 254 254 254 254 257 258 259 258 258 260 265 270 270 270 270 266 269 273 273 271 273 278 284 289 298 305 308 308 310 312 314 318 324
259 255 251 250 247 248 247 244 244 246 249 249 248 249 252 258 265 266 266 267 264 265 267 268 271 274 276 278 282 291 299 305 309 310 312 315 317 323
256 250 245 243 241 240 239 239 240 243 246 245 244 246 247 250 258 262 262 262 263 263 262 267 268 272 276 277 278 285 295 304 308 310 314 317 318 322
250 245 242 239 238 238 238 241 241 242 243 243 242 244 245 247 251 255 256 257 255 257 258 264 267 269 275 278 278 283 292 300 307 314 318 320 321 326
Height
5657 5657 5656 5656 5656 5655 5654 5653 5653 5652 5652 5651 5649 5645 5642 5640 5637 5635 5633 5630 5627 5624 5621 5618 5614 5609 5605 5602 5599 5596 5594 5592 5591 5589 5587 5584 5581 5578
5646 5645 5645 5645 5644 5643 5642 5641 5640 5639 5638 5639 5636 5634 5631 5628 5625 5623 5621 5618 5615 5612 5609 5606 5602 5598 5594 5591 5588 5584 5582 5581 5579 5578 5575 5573 5570 5568
5634 5634 5633 5632 5632 5631 5630 5629 5628 5626 5625 5625 5624 5621 5619 5617 5614 5612 5609 5606 5604 5601 5598 5594 5591 5588 5584 5580 5577 5574 5572 5570 5569 5567 5564 5562 5560 5557
5623 5622 5621 5621 5620 5619 5618 5617 5616 5614 5613 5613 5612 5610 5608 5606 5603 5601 5598 5595 5593 5590 5587 5584 5581 5578 5574 5570 5567 5564 5562 5560 5559 5557 5555 5553 5550 5547
5611 5610 5610 5610 5609 5608 5607 5605 5604 5603 5602 5601 5601 5599 5597 5595 5593 5590 5587 5585 5582 5580 5577 5575 5572 5569 5565 5561 5558 5555 5553 5551 5550 5548 5545 5543 5541 5538
5599 5599 5599 5599 5598 5597 5595 5594 5593 5592 5591 5590 5590 5588 5587 5585 5582 5580 5578 5575 5573 5571 5568 5566 5563 5560 5556 5553 5550 5547 5545 5543 5541 5539 5536 5534 5532 5529
5589 5588 5588 5587 5587 5586 5585 5584 5583 5582 5581 5580 5579 5578 5577 5575 5573 5571 5569 5566 5564 5562 5560 5557 5554 5551 5548 5545 5542 5539 5537 5535 5533 5531 5528 5526 5524 5521
5578 5577 5577 5576 5576 5575 5574 5573 5573 5572 5571 5570 5569 5568 5567 5565 5563 5561 5560 5558 5557 5555 5552 5549 5546 5543 5540 5537 5535 5532 5530 5528 5526 5524 5522 5519 5517 5514
5567 5567 5566 5565 5565 5565 5564 5564 5563 5562 5562 5561 5560 5559 5558 5556 5554 5552 5550 5548 5547 5546 5543 5541 5538 5536 5533 5530 5528 5525 5524 5521 5519 5517 5515 5513 5510 5508
5556 5556 5555 5555 5555 5555 5554 5554 5554 5553 5552 5552 5551 5550 5548 5546 5545 5543 5541 5540 5539 5537 5535 5534 5532 5529 5526 5524 5521 5519 5517 5515 5513 5511 5509 5507 5504 5501
5545 5545 5545 5545 5545 5545 5545 5545 5545 5544 5543 5542 5541 5540 5538 5537 5535 5533 5532 5531 5531 5530 5528 5527 5525 5522 5520 5518 5515 5512 5510 5508 5507 5505 5503 5501 5498 5496
5534 5534 5535 5536 5536 5536 5536 5536 5536 5535 5534 5533 5532 5530 5529 5527 5526 5525 5524 5523 5523 5522 5521 5519 5517 5515 5514 5512 5509 5507 5505 5503 5501 5499 5498 5495 5493 5490
5524 5525 5526 5527 5527 5528 5528 5528 5527 5526 5525 5524 5523 5522 5520 5519 5517 5517 5516 5516 5515 5515 5513 5512 5511 5509 5507 5506 5504 5502 5500 5498 5496 5494 5492 5490 5488 5485
5515 5516 5517 5518 5519 5519 5519 5519 5518 5517 5516 5515 5514 5513 5513 5512 5510 5509 5509 5508 5508 5507 5506 5505 5505 5503 5501 5500 5498 5497 5495 5494 5492 5490 5488 5486 5483 5480
5506 5507 5508 5509 5510 5510 5511 5510 5510 5509 5508 5508 5507 5507 5506 5505 5504 5503 5502 5502 5501 5501 5501 5500 5499 5498 5496 5495 5494 5493 5491 5490 5488 5486 5484 5481 5479 5476
5497 5498 5499 5500 5501 5502 5502 5502 5502 5502 5501 5501 5501 5500 5499 5499 5498 5497 5497 5497 5496 5496 5495 5495 5494 5493 5492 5491 5490 5489 5487 5485 5484 5482 5480 5477 5475 5472
5489 5490 5491 5492 5493 5493 5494 5495 5495 5495 5495 5495 5495 5494 5494 5494 5493 5492 5492 5492 5492 5491 5491 5491 5490 5489 5488 5487 5486 5485 5483 5482 5480 5478 5476 5474 5471 5468
5482 5483 5484 5484 5485 5486 5487 5488 5488 5489 5489 5489 5489 5489 5489 5488 5488 5488 5488 5488 5488 5487 5487 5487 5487 5486 5486 5485 5483 5482 5480 5478 5477 5475 5473 5471 5468 5464
5474 5475 5476 5476 5477 5478 5480 5481 5482 5482 5483 5483 5483 5483 5484 5484 5484 5484 5484 5484 5484 5484 5484 5484 5483 5483 5483 5482 5481 5479 5478 5476 5474 5472 5470 5468 5465 5462
5466 5467 5468 5469 5470 5471 5473 5474 5475 5476 5477 5477 5478 5479 5479 5480 5480 5480 5480 5481 5481 5481 5481 5481 5480 5480 5480 5480 5478 5477 5475 5473 5472 5470 5467 5465 5462 5459
5459 5460 5461 5462 5464 5465 5467 5468 5470 5471 5472 5472 5473 5474 5475 5476 5476 5477 5477 5477 5478 5478 5478 5478 5478 5477 5477 5476 5476 5474 5473 5471 5469 5467 5465 5462 5460 5457
5452 5454 5455 5456 5458 5459 5461 5463 5464 5465 5467 5468 5469 5470 5471 5472 5472 5473 5473 5474 5474 5475 5475 5475 5475 5474 5474 5474 5473 5472 5470 5468 5466 5463 5461 5460 5457 5455
5447 5448 5450 5451 5453 5454 5456 5457 5459 5460 5462 5463 5465 5466 5467 5468 5469 5469 5470 5470 5471 5471 5472 5472 5472 5472 5471 5471 5470 5469 5468 5466 5464 5461 5459 5456 5454 5451